Location: Bartshausen
(51.8454°N, 9.8167°E)
Time: 07:27:01
(UTC+00:00)

Cosmos 2360 Rocket - Pass Details

Date: 08 November 2025
Orbit: 833 x 843 km, 71.0° (Epoch: 11 December)

Event Time Altitude Azimuth Distance (km) Brightness Sun altitude
Exits shadow 05:41:12 - 297° (WNW) 2,580 4.1 -7.5°
Reaches altitude 10° 05:41:42 10° 301° (WNW) 2,471 4.0 -7.4°
Maximum altitude 05:44:56 15° 336° (NNW) 2,120 3.9 -7.0°
Drops below altitude 10° 05:48:12 10° 11° (NNE) 2,474 4.6 -6.5°
Sets 05:51:48 0° 34° (NE) 3,409 5.6 -6.0°
